Printer-friendly version

IAU Minor Planet Center

Minor Planet Center

MPEC 2000-J23: 2000 JE5

The following Minor Planet Electronic Circular may be linked-to from your own Web pages, but must not otherwise be redistributed electronically.


Read MPEC 2000-J22 Read MPEC 2000-J24


M.P.E.C. 2000-J23                                Issued 2000 May 6, 20:00 UT

     The Minor Planet Electronic Circulars contain information on unusual
         minor planets and routine data on comets.  They are published
   on behalf of Commission 20 of the International Astronomical Union by the
          Minor Planet Center, Smithsonian Astrophysical Observatory,
                          Cambridge, MA 02138, U.S.A.

             Prepared using the Tamkin Foundation Computer Network

             BMARSDEN@CFA.HARVARD.EDU or GWILLIAMS@CFA.HARVARD.EDU
          URL http://cfa-www.harvard.edu/iau/mpc.html  ISSN 1523-6714

                                   2000 JE5

Observations:
     K00J05E* C2000 05 01.25491 13 30 30.54 +26 39 53.2          18.2        704
     K00J05E  C2000 05 01.26732 13 30 23.24 +26 39 10.9          18.6        704
     K00J05E  C2000 05 01.27955 13 30 16.11 +26 38 29.1          18.4        704
     K00J05E  C2000 05 01.29295 13 30 08.18 +26 37 43.7          18.6        704
     K00J05E  C2000 05 01.30528 13 30 00.98 +26 37 01.1          18.6        704
     K00J05E  C2000 05 01.96756 13 23 37.20 +25 58 02.6                      118
     K00J05E  C2000 05 01.97037 13 23 35.53 +25 57 52.0                      118
     K00J05E  C2000 05 01.97281 13 23 34.10 +25 57 43.4                      118
     K00J05E  C2000 05 01.97377 13 23 33.46 +25 57 38.8                      118
     K00J05E  C2000 05 02.26736 13 20 42.73 +25 39 47.7          18.6        704
     K00J05E  C2000 05 02.27688 13 20 37.05 +25 39 11.0          18.7        704
     K00J05E  C2000 05 02.27969 13 20 35.39 +25 39 01.6          18.3        704
     K00J05E  C2000 05 02.29205 13 20 28.09 +25 38 15.0          19.0        704
     K00J05E  C2000 05 02.30438 13 20 20.76 +25 37 29.2          18.9        704
     K00J05E  C2000 05 02.30902 13 20 18.02 +25 37 10.3          18.9        704
     K00J05E  C2000 05 02.31671 13 20 13.41 +25 36 42.6          18.5        704
     K00J05E  C2000 05 02.32217 13 20 10.20 +25 36 22.1          18.7        704
     K00J05E  C2000 05 02.33498 13 20 02.65 +25 35 33.9          19.2        704
     K00J05E  C2000 05 02.89259 13 14 36.95 +24 59 48.8          17.7 R      046
     K00J05E  C2000 05 02.89403 13 14 36.23 +24 59 44.9                      046
     K00J05E  C2000 05 02.89464 13 14 35.93 +24 59 40.8                      046
     K00J05E  C2000 05 02.89575 13 14 35.21 +24 59 38.2                      046
     K00J05E  C2000 05 02.89650 13 14 34.62 +24 59 34.6          17.6 R      046
     K00J05E  C2000 05 03.01123 13 13 26.41 +24 52 01.0                      557
     K00J05E  C2000 05 03.01263 13 13 25.53 +24 51 54.5          18.6 V      557
     K00J05E  C2000 05 03.01359 13 13 25.02 +24 51 50.4                      557
     K00J05E  C2000 05 03.01453 13 13 24.43 +24 51 46.8                      557
     K00J05E  C2000 05 03.20646 13 11 32.82 +24 39 11.0          18.5        704
     K00J05E  C2000 05 03.20762 13 11 32.00 +24 39 06.4          18.8        704
     K00J05E  C2000 05 03.22050 13 11 24.40 +24 38 14.6          19.1        704
     K00J05E  C2000 05 03.23227 13 11 17.36 +24 37 27.8          18.6        704
     K00J05E  C2000 05 03.23349 13 11 16.62 +24 37 22.9          18.7        704
     K00J05E  C2000 05 03.24545 13 11 09.54 +24 36 34.2          18.8        704
     K00J05E  C2000 05 03.24631 13 11 08.86 +24 36 31.7          19.2        704
     K00J05E  C2000 05 03.25861 13 11 01.54 +24 35 40.8          18.5        704
     K00J05E  C2000 05 03.25900 13 11 01.34 +24 35 40.1          19.4        704
     K00J05E  C2000 05 03.83945 13 05 20.09 +23 55 35.6                      557
     K00J05E  C2000 05 03.84214 13 05 18.45 +23 55 24.9                      557
     K00J05E  C2000 05 03.84466 13 05 16.94 +23 55 14.4                      557
     K00J05E  C2000 05 03.84592 13 05 16.20 +23 55 08.9                      557
     K00J05E  C2000 05 03.87264 13 05 00.23 +23 53 16.8          18.3 R      046
     K00J05E  C2000 05 03.87370 13 04 59.57 +23 53 12.7                      046
     K00J05E  C2000 05 03.87434 13 04 59.20 +23 53 09.8                      046
     K00J05E  C2000 05 03.87523 13 04 58.66 +23 53 06.1          18.0 R      046
     K00J05E  C2000 05 04.20004 13 01 47.17 +23 30 04.4          18.6        704
     K00J05E  C2000 05 04.20352 13 01 45.11 +23 29 49.9          18.3        704
     K00J05E  C2000 05 04.21214 13 01 39.93 +23 29 12.3          19.0        704
     K00J05E  C2000 05 04.21606 13 01 37.59 +23 28 55.7          18.0        704
     K00J05E  C2000 05 04.22431 13 01 32.61 +23 28 19.9          18.8        704
     K00J05E  C2000 05 04.22895 13 01 29.76 +23 28 00.2          17.9        704
     K00J05E  C2000 05 04.23640 13 01 25.32 +23 27 26.7          18.7        704
     K00J05E  C2000 05 04.24130 13 01 22.43 +23 27 06.1          18.0        704
     K00J05E  C2000 05 04.24859 13 01 17.99 +23 26 34.1          18.7        704
     K00J05E  C2000 05 04.25193 13 01 15.97 +23 26 22.7                      651
     K00J05E  C2000 05 04.25280 13 01 15.55 +23 26 18.5                      651
     K00J05E  C2000 05 04.25361 13 01 15.08 +23 26 13.8          18.9 V      651
     K00J05E  C2000 05 04.83533 12 55 32.34 +22 43 11.2                      557
     K00J05E  C2000 05 04.83609 12 55 31.82 +22 43 08.0                      557
     K00J05E  C2000 05 04.83686 12 55 31.39 +22 43 04.5                      557
     K00J05E  C2000 05 04.83763 12 55 30.97 +22 43 00.9                      557
     K00J05E  C2000 05 04.83840 12 55 30.48 +22 42 57.2                      557
     K00J05E  C2000 05 05.20152 12 51 56.18 +22 15 29.6          18.4        704
     K00J05E  C2000 05 05.20289 12 51 55.30 +22 15 23.2          18.2        704
     K00J05E  C2000 05 05.21404 12 51 48.66 +22 14 32.3          18.2        704
     K00J05E  C2000 05 05.21646 12 51 47.15 +22 14 21.7          18.5        704
     K00J05E  C2000 05 05.21866 12 51 45.85 +22 14 09.4          18.0 R      858
     K00J05E  C2000 05 05.22420 12 51 42.49 +22 13 43.7          18.4 R      858
     K00J05E  C2000 05 05.22723 12 51 40.70 +22 13 29.9          18.3 R      858
     K00J05E  C2000 05 05.22752 12 51 40.56 +22 13 29.4          19.1        704
     K00J05E  C2000 05 05.22890 12 51 39.73 +22 13 24.0          18.5        704
     K00J05E  C2000 05 05.24013 12 51 32.97 +22 12 30.5          18.8        704
     K00J05E  C2000 05 05.24209 12 51 31.78 +22 12 22.3          18.5        704
     K00J05E  C2000 05 05.25238 12 51 25.64 +22 11 34.5          18.6        704
     K00J05E  C2000 05 05.25454 12 51 24.34 +22 11 24.6          18.4        704
     K00J05E  C2000 05 05.97928 12 44 17.55 +21 14 12.4          18.4 R      540
     K00J05E  C2000 05 05.98213 12 44 15.82 +21 13 58.5                      540
     K00J05E  C2000 05 05.98485 12 44 14.24 +21 13 45.3                      540

Observer details:
046 Klet.  Observers M. Tichy, Z. Moravec.  0.57-m f/5.2 reflector + CCD.
118 Modra.  Observers L. Kornos, J. Toth.  0.6-m f/5.5 reflector + CCD.
540 Linz.  Observers E. Meyer, E. Obermair, H. Raab.  0.6-m f/3.0 reflector
    + CCD.
557 Ondrejov.  Observers P. Pravec, P. Kusnirak.  0.65-m f/3.6 reflector + CCD.
651 Grasslands Observatory, Tucson.  Observer J. E. McGaha.  0.62-m f/5.1
    reflector + CCD.
704 Lincoln Laboratory ETS, New Mexico.  Observers M. Blythe, F. Shelly,
    M. Bezpalko, M. Elowitz, R. Huber.  Measurers J. Stuart, H. Viggh,
    R. Sayer, J. B. Evans.  1.0-m f/2.15 reflector + CCD.
858 Tebbutt Observatory, Edgewood.  Observer F. B. Zoltowski.  0.3-m f/3.3
    Schmidt-Cassegrain + CCD.

Orbital elements:
2000 JE5
Epoch 2000 Apr. 26.0 TT = JDT 2451660.5                 Williams
M 285.65717              (2000.0)            P               Q
n   0.72531208     Peri.  286.03051     +0.61350184     +0.60401976
a   1.2268349      Node    41.41392     +0.03887115     +0.62029504
e   0.3984285      Incl.   50.26566     -0.78873603     +0.50039404
P   1.36           H   19.2           G   0.15
From 77 observations 2000 May 1-5.

Ephemeris:
2000 JE5                 a,e,i = 1.23, 0.40, 50                  q = 0.7380
Date    TT    R. A. (2000) Decl.     Delta      r     Elong.  Phase     V
2000 04 26    14 18.14   +30 26.0    0.356    1.286   136.0    32.9    18.9
2000 05 01    13 32.96   +26 54.2    0.321    1.257   135.5    34.2    18.6
2000 05 06    12 44.11   +21 12.9    0.300    1.226   130.7    38.6    18.6
2000 05 11    11 56.92   +13 49.0    0.297    1.195   122.2    45.6    18.7
2000 05 16    11 15.54   +05 53.7    0.309    1.163   112.0    53.7    18.9
2000 05 21    10 41.40   -01 25.4    0.335    1.130   102.0    61.2    19.3
2000 05 26    10 13.97   -07 36.9    0.370    1.097    93.1    67.2    19.6
2000 05 31    09 51.91   -12 39.1    0.411    1.063    85.5    71.9    19.9
2000 06 05    09 33.83   -16 42.5    0.454    1.030    79.0    75.3    20.2
2000 06 10    09 18.53   -19 59.2    0.499    0.996    73.5    77.8    20.4
2000 06 15    09 05.09   -22 38.4    0.543    0.963    68.7    79.5    20.6
2000 06 20    08 52.84   -24 46.1    0.586    0.930    64.6    80.7    20.7
2000 06 25    08 41.30   -26 25.8    0.626    0.898    60.9    81.6    20.8

Gareth V. Williams           (C) Copyright 2000 MPC           M.P.E.C. 2000-J23

Read MPEC 2000-J22 Read MPEC 2000-J24


Our Web policy. Index to the CBAT/MPC/ICQ pages.


Valid HTML 4.01!